Vertical_Velocity
1 -7 7 4 1 1 5 -3 2 3 6 1 3 2 -0 -0 0 1 2 2 1 -2 -2 -1 -1 -1 1 -1 -0 -1 -1 -3 1 -2 -0 0 -2 -0 2 -0 -0 -1 0 -1
-5 3 4 -3 -3 -1 3 -2 8 2 -2 -1 6 1 -1 1 1 -1 -3 -2 -3 -0 1 0 -1 0 1 -1 -1 -0 -0 -3 -1 -2 -3 -1 0 -3 0 -1 -0 -1 0 -0
-0 5 -3 -2 1 1 1 -2 -1 7 1 6 -2 -1 -3 1 -1 -5 0 -1 0 -4 -2 -1 -2 -0 -0 -0 2 -0 0 -2 -3 -2 -2 -1 1 1 -0 -1 -0 -1 -1 -1
-3 -3 3 -2 -4 -2 2 4 -2 0 -2 3 9 -0 -5 0 2 -2 -4 2 -1 2 -0 1 0 -1 -2 -1 -1 -0 -2 -2 -2 -2 -1 -2 -4 -4 -2 -1 -1 -0 -2 -1
9 6 1 -1 11 -2 13 -2 -3 5 -2 5 -7 -2 9 -2 -0 -2 -2 1 1 2 -1 0 -1 -3 -4 -5 -1 -0 -2 -1 -2 -0 -1 -3 -3 -2 1 -1 -0 1 -0 -2
4 -2 -4 11 1 1 10 -0 -1 6 3 -25 2 -0 2 13 -1 0 2 -2 -0 -1 1 1 -1 -1 -0 -3 -3 -2 -1 -1 -1 -1 -1 -2 -3 -2 -2 -1 -1 -1 -0 -1
1 -3 7 -1 5 -0 -1 -0 4 -1 -14 -39 5 -6 17 4 -0 3 4 1 1 1 -1 -2 0 3 1 2 2 0 -1 0 -0 -1 0 -1 -2 -1 -4 -2 0 1 -0 -1
4 5 9 14 7 12 10 8 8 -6 -15 9 3 -36 -4 -1 -11 2 -1 3 0 -4 -1 -1 0 1 0 -2 -4 -2 1 -2 1 -1 1 -1 -1 -1 -2 -3 -2 -1 -1 1
-10 1 -5 10 8 0 13 -39 36 11 -8 -12 32 -3 -6 1 4 3 2 4 -3 0 -0 2 -1 1 0 0 0 0 -0 0 -1 -0 -1 -2 -0 -0 -0 -0 -3 -3 -0 1
-24 2 -1 -15 12 5 -4 25 -1 -7 -17 -16 12 -12 17 -12 5 4 -3 -2 0 3 -2 -4 0 1 2 0 -1 -1 -2 -2 1 -1 -1 -3 0 0 0 -2 -2 -2 -4 -1
-5 -2 4 5 -8 17 -4 5 -7 5 -1 -8 17 -11 6 -6 6 2 7 1 -1 0 1 -1 -1 2 2 -2 -3 -1 -2 -1 -1 -1 -4 -3 -1 -1 -1 1 -3 -2 -2 -0
-11 -7 -0 0 5 -4 -19 -10 -7 2 3 -9 14 -9 -4 -6 2 6 4 2 6 4 2 1 1 1 -0 3 0 2 -1 0 1 -2 -3 0 -1 -2 -3 0 -2 -5 -1 -1
-4 -6 2 9 11 5 5 10 6 15 9 -13 15 -0 -7 -4 4 5 5 3 1 5 1 -1 -6 -2 2 2 3 2 1 0 -0 -1 -0 -2 -2 -2 1 0 -1 -3 -3 -0
-5 -4 2 2 15 -1 -33 16 -12 -9 10 9 1 5 -6 0 7 5 9 -5 -9 -10 -3 -1 -3 -5 2 2 2 3 1 0 -1 -1 -1 -2 -1 2 3 0 -1 -1 -1 -2
-7 -5 -4 4 4 -0 -7 -11 -1 -7 1 -13 12 -1 -4 8 9 5 8 -2 -2 2 -1 2 2 -4 0 1 1 -0 0 0 -2 1 -2 1 -0 2 -1 -2 -1 0 -0 -1
-2 -2 -3 4 7 2 -5 1 5 -5 -3 -1 3 -13 3 1 -9 10 -5 17 -1 2 1 2 -2 -2 -3 1 2 3 -1 -1 0 2 3 2 -1 -2 -2 0 -1 -1 0 -0
3 2 1 7 2 -5 -15 -18 -12 -5 3 3 -16 28 7 -8 11 -4 8 10 2 2 1 2 -2 -1 -1 -4 2 2 4 -1 -0 -0 1 2 -1 -3 -3 -2 -4 -0 2 -3
-0 4 5 3 -5 -5 -14 40 16 6 9 1 4 -4 -25 1 -12 6 2 5 4 4 4 0 3 -1 1 -6 -2 -1 -1 -1 -0 -0 -2 -1 -1 0 -2 -4 -3 -1 -2 1
-1 -1 -0 -5 5 8 -1 -17 -9 -21 23 -17 -2 -0 -5 4 4 6 2 5 7 6 1 1 2 -4 3 1 2 1 -0 -1 -2 -1 -1 -0 -0 -1 -1 -1 1 0 -1 1
3 6 -1 1 -4 -6 -4 4 6 -2 -1 6 5 5 -12 12 -9 -1 5 1 1 -0 4 -2 0 -8 5 3 2 1 0 -0 -3 -1 -1 1 1 -0 1 1 2 3 1 -1
5 1 -5 2 -6 1 -7 -1 2 2 4 5 -1 3 3 -11 -23 -27 6 -1 4 2 3 3 -3 -3 7 -2 -2 -0 1 -0 5 -1 -3 -2 -0 1 2 2 -2 -1 -1 -2
0 -4 -5 -8 -11 -16 12 4 -2 -13 -4 0 1 -0 -8 1 -2 5 7 2 1 3 1 -4 -4 -4 2 -1 0 2 5 6 3 -4 -2 2 1 -1 1 1 2 2 -0 -1
-1 -3 -2 -2 11 15 1 1 -6 -4 -2 -4 2 -3 -6 1 0 -0 -2 2 2 4 -3 -2 -2 -1 0 -4 -7 2 2 2 4 -2 -1 -1 1 -3 -2 -0 1 -1 1 2
9 17 14 16 12 -0 -1 3 4 2 -3 -1 -5 -5 -3 3 0 -1 2 -1 -2 0 1 -2 -4 -3 1 -3 -2 7 -0 4 -1 0 -5 -5 -4 -0 -1 -1 1 0 2 3
10 12 9 16 5 1 0 -1 -6 10 -2 37 -8 -5 -4 2 -0 3 3 -1 -3 1 1 -2 2 1 2 -2 1 -2 4 -1 -3 4 -4 -4 -5 -1 -1 -1 -3 -4 -0 2
4 4 10 4 4 -5 1 6 -4 5 2 50 9 -6 2 6 1 -2 -1 -1 -4 2 1 -0 6 4 -2 -2 -1 7 -1 2 -1 4 2 -2 -1 0 0 1 1 2 3 -2
Height
5836 5841 5847 5851 5852 5854 5860 5865 5869 5872 5875 5877 5880 5883 5885 5887 5890 5893 5894 5895 5897 5898 5899 5902 5905 5908 5911 5913 5915 5918 5921 5925 5928 5931 5933 5936 5938 5940 5942 5944 5945 5946 5946 5947
5828 5835 5839 5840 5844 5847 5851 5857 5864 5867 5868 5873 5877 5879 5881 5884 5887 5888 5891 5893 5894 5896 5898 5899 5903 5907 5910 5912 5914 5917 5921 5925 5927 5929 5932 5935 5938 5940 5942 5945 5946 5947 5948 5948
5817 5825 5827 5831 5837 5841 5845 5850 5854 5861 5861 5868 5870 5874 5876 5880 5882 5887 5889 5892 5893 5894 5896 5897 5900 5904 5908 5911 5913 5916 5920 5923 5926 5929 5932 5935 5938 5941 5943 5944 5947 5949 5950 5950
5805 5812 5816 5821 5827 5832 5837 5843 5847 5850 5853 5860 5866 5870 5870 5874 5878 5882 5885 5890 5892 5893 5895 5896 5898 5900 5905 5908 5911 5913 5917 5921 5924 5928 5932 5935 5936 5939 5942 5944 5947 5950 5951 5952
5793 5800 5804 5811 5816 5821 5829 5833 5836 5840 5843 5848 5852 5858 5868 5870 5872 5878 5881 5886 5889 5892 5894 5895 5897 5898 5900 5903 5907 5911 5915 5919 5923 5927 5931 5933 5935 5939 5943 5945 5947 5949 5951 5952
5778 5786 5790 5797 5801 5808 5818 5823 5826 5831 5834 5832 5844 5850 5857 5863 5868 5876 5877 5881 5885 5889 5891 5893 5895 5896 5898 5900 5904 5908 5913 5917 5922 5926 5929 5932 5935 5938 5942 5944 5947 5950 5951 5952
5764 5771 5777 5780 5788 5793 5803 5811 5814 5817 5819 5826 5840 5838 5849 5857 5864 5872 5875 5877 5881 5884 5886 5889 5891 5894 5895 5899 5903 5907 5911 5915 5920 5924 5928 5931 5933 5937 5940 5943 5946 5950 5951 5953
5750 5759 5761 5768 5774 5781 5788 5797 5803 5805 5815 5825 5830 5825 5836 5847 5853 5861 5867 5872 5874 5877 5881 5885 5888 5889 5892 5894 5898 5903 5907 5912 5917 5922 5926 5929 5932 5935 5938 5941 5945 5948 5951 5953
5735 5743 5745 5752 5757 5766 5774 5777 5802 5800 5805 5815 5819 5824 5830 5836 5846 5853 5859 5864 5867 5875 5878 5882 5883 5886 5888 5891 5895 5900 5903 5907 5912 5918 5922 5926 5930 5933 5936 5938 5941 5944 5948 5952
5721 5730 5733 5735 5744 5751 5755 5779 5776 5781 5788 5797 5806 5812 5817 5826 5841 5849 5852 5857 5864 5869 5873 5877 5880 5882 5884 5887 5890 5894 5898 5902 5906 5911 5917 5922 5927 5930 5933 5935 5938 5941 5944 5949
5709 5715 5722 5726 5731 5740 5746 5753 5757 5771 5776 5787 5799 5806 5813 5819 5834 5842 5848 5853 5859 5863 5868 5872 5876 5878 5880 5882 5884 5889 5895 5899 5903 5908 5912 5917 5922 5926 5929 5934 5935 5938 5942 5946
5691 5698 5706 5714 5717 5721 5728 5732 5747 5755 5764 5775 5787 5800 5800 5807 5821 5831 5839 5847 5854 5859 5864 5868 5871 5873 5876 5880 5882 5885 5890 5895 5901 5906 5909 5913 5918 5922 5926 5931 5932 5935 5939 5942
5675 5681 5688 5700 5707 5711 5714 5723 5734 5744 5757 5762 5770 5784 5791 5799 5814 5823 5830 5839 5845 5852 5856 5860 5863 5868 5873 5876 5880 5884 5887 5892 5896 5900 5905 5909 5914 5919 5924 5927 5929 5932 5936 5939
5658 5665 5671 5682 5686 5686 5692 5703 5708 5724 5734 5748 5759 5775 5781 5793 5805 5813 5820 5826 5831 5837 5846 5853 5857 5863 5868 5872 5876 5880 5885 5888 5891 5895 5900 5906 5911 5916 5920 5923 5925 5928 5932 5936
5645 5650 5654 5662 5669 5674 5682 5692 5701 5710 5719 5729 5752 5760 5772 5784 5793 5802 5808 5813 5823 5831 5837 5845 5852 5858 5863 5866 5871 5875 5879 5883 5887 5892 5896 5902 5906 5910 5914 5918 5921 5924 5928 5932
5632 5636 5641 5647 5655 5662 5669 5679 5687 5697 5706 5717 5731 5739 5762 5773 5780 5792 5797 5808 5813 5820 5829 5837 5844 5850 5857 5862 5867 5870 5874 5878 5883 5888 5893 5895 5898 5903 5909 5913 5916 5920 5924 5928
5622 5625 5629 5635 5641 5647 5656 5673 5683 5693 5699 5709 5720 5735 5749 5760 5772 5781 5792 5799 5804 5812 5820 5828 5835 5843 5850 5857 5862 5866 5870 5872 5877 5882 5886 5889 5893 5898 5904 5908 5911 5915 5919 5923
5613 5616 5619 5625 5629 5638 5659 5668 5670 5678 5687 5696 5707 5721 5737 5750 5762 5772 5780 5789 5796 5804 5811 5819 5828 5837 5845 5850 5856 5859 5863 5867 5872 5876 5880 5884 5889 5893 5897 5901 5906 5910 5914 5919
5606 5609 5612 5616 5624 5633 5640 5645 5658 5658 5673 5676 5695 5710 5729 5744 5752 5762 5769 5778 5787 5795 5803 5812 5821 5831 5838 5845 5851 5855 5858 5863 5866 5870 5875 5881 5885 5888 5891 5896 5901 5905 5909 5914
5598 5602 5605 5610 5614 5623 5628 5642 5650 5661 5671 5678 5687 5699 5720 5732 5740 5749 5758 5767 5776 5785 5793 5803 5814 5824 5831 5840 5845 5850 5854 5858 5861 5866 5872 5875 5879 5882 5887 5891 5894 5899 5903 5908
5591 5596 5602 5605 5608 5616 5622 5632 5642 5650 5659 5667 5677 5691 5708 5718 5728 5741 5752 5759 5768 5776 5784 5796 5806 5817 5824 5831 5837 5843 5849 5854 5858 5859 5863 5868 5873 5877 5881 5884 5887 5893 5898 5902
5592 5595 5598 5601 5604 5611 5622 5629 5636 5643 5653 5660 5671 5684 5699 5713 5724 5730 5743 5751 5758 5767 5776 5785 5795 5806 5812 5822 5830 5836 5843 5846 5849 5851 5857 5861 5865 5870 5874 5879 5884 5888 5893 5897
5592 5592 5594 5598 5606 5612 5620 5628 5634 5641 5648 5657 5667 5679 5693 5706 5716 5726 5736 5743 5749 5758 5766 5774 5784 5794 5802 5811 5819 5827 5833 5838 5841 5846 5850 5853 5856 5861 5867 5873 5878 5882 5887 5892
5598 5597 5598 5602 5610 5615 5618 5623 5629 5636 5645 5653 5663 5675 5687 5700 5710 5720 5729 5734 5744 5752 5759 5765 5775 5784 5794 5802 5809 5816 5823 5831 5834 5839 5842 5846 5849 5854 5860 5865 5870 5875 5881 5886
5604 5603 5604 5606 5610 5615 5618 5621 5624 5629 5639 5647 5658 5670 5682 5693 5703 5713 5721 5729 5737 5744 5751 5756 5765 5774 5783 5790 5798 5805 5812 5820 5826 5831 5835 5839 5842 5846 5852 5857 5862 5867 5873 5879
5608 5607 5607 5608 5609 5613 5615 5618 5622 5627 5632 5641 5650 5664 5676 5686 5697 5707 5716 5723 5731 5738 5745 5750 5758 5766 5774 5782 5789 5796 5803 5811 5818 5823 5827 5831 5835 5839 5843 5849 5855 5859 5865 5870